Wind_Speed
24 24 22 21 21 20 19 18 17 16 15 13 11 9 7 6 5 5 6 7 8 7 7 8 8 9 10 10 9 10 10 9 9 9 10 9 9 8 7 6 5 4 3 3
26 25 24 24 23 22 21 19 19 18 18 16 14 12 10 9 7 6 6 6 7 7 6 6 7 8 9 9 9 10 10 10 9 8 9 9 8 7 7 7 6 5 4 4
27 26 26 25 24 23 22 20 20 20 20 18 16 15 13 11 9 8 7 7 7 7 7 7 7 7 8 8 8 9 10 10 8 8 8 8 8 7 7 7 7 6 5 5
29 28 28 27 26 24 23 22 22 22 22 21 18 16 14 12 10 9 9 9 8 9 9 8 7 7 8 8 8 9 9 9 9 9 9 9 9 8 7 7 6 6 6 5
29 28 28 28 26 25 24 24 24 24 24 23 21 19 15 14 12 11 10 10 10 10 9 9 8 7 8 8 9 9 9 9 9 9 10 10 10 8 7 7 6 6 5 5
30 29 28 28 27 27 26 26 26 25 25 24 22 21 17 16 14 13 12 12 11 10 10 10 9 9 9 9 9 9 9 10 10 9 10 10 8 7 6 6 6 6 6 5
31 30 29 29 28 28 27 27 27 27 27 25 23 23 19 16 15 15 14 13 12 11 11 12 11 10 10 10 10 10 10 10 10 10 9 8 6 6 6 6 6 6 6 5
31 30 30 29 29 28 28 28 28 28 28 25 24 23 19 17 16 15 15 14 13 12 11 11 11 11 10 10 10 10 10 10 10 10 10 6 5 5 6 6 6 6 6 5
32 31 30 30 29 30 29 29 28 29 28 26 25 23 21 18 17 16 14 14 13 13 12 11 11 11 11 11 11 11 11 11 11 11 10 8 6 5 6 7 6 6 6 5
33 32 31 31 31 31 30 29 30 30 29 27 26 23 21 20 18 16 14 14 13 13 12 10 10 11 12 12 12 12 11 11 11 11 10 8 7 7 7 7 7 6 7 6
33 33 32 32 31 30 30 30 30 30 29 28 27 24 22 21 19 18 16 15 14 14 12 11 11 11 12 12 11 11 10 9 10 11 10 9 8 8 8 7 7 7 8 8
33 33 33 32 31 31 31 31 30 30 30 29 28 25 23 22 20 18 17 16 16 14 13 12 12 13 13 12 11 11 10 9 10 10 11 10 10 10 9 8 8 8 9 9
33 33 33 33 32 32 32 31 30 29 29 29 28 26 24 24 22 20 19 18 18 16 15 13 13 14 13 12 11 11 10 11 11 11 11 11 11 11 10 10 9 9 10 10
33 32 32 31 30 30 31 30 30 29 30 29 29 27 26 25 24 22 21 20 19 17 16 15 14 14 13 13 13 12 11 12 12 13 13 12 12 12 12 12 11 11 11 11
32 32 31 30 30 29 29 29 29 30 29 29 28 27 26 25 24 23 22 21 19 18 17 16 15 15 14 14 15 14 14 14 14 14 14 14 13 14 14 14 13 13 13 13
32 32 31 30 29 29 29 29 29 29 29 28 27 27 26 25 24 23 23 22 21 20 19 18 17 16 16 17 17 16 16 15 14 14 14 15 16 16 16 16 15 15 15 15
32 32 31 31 30 30 31 30 29 29 29 28 27 26 26 26 25 24 23 24 23 21 20 20 19 18 18 18 18 18 17 16 15 15 15 15 16 16 17 17 16 16 16 16
32 32 32 31 31 32 31 30 30 30 30 29 28 26 26 25 24 24 23 23 23 22 21 21 20 19 18 18 18 18 18 17 16 16 16 16 16 16 16 16 17 17 17 18
33 33 32 33 33 32 32 31 30 30 30 29 27 26 25 24 24 24 23 23 23 22 22 22 22 21 19 19 19 19 19 18 17 17 17 17 16 16 16 16 17 17 17 17
34 33 33 33 34 34 32 31 31 30 31 29 28 27 26 26 25 24 24 24 24 24 23 23 23 22 21 20 20 19 19 18 18 18 18 18 17 17 17 17 17 17 17 17
34 34 34 34 34 34 33 32 31 31 30 29 29 28 28 27 27 26 26 25 25 26 24 24 24 23 22 21 21 20 20 20 19 19 20 20 19 19 19 19 19 18 18 18
35 35 35 34 34 34 32 32 32 31 30 30 29 29 28 28 28 28 28 27 27 26 25 24 23 23 22 22 22 21 21 21 21 21 21 21 21 20 20 20 19 19 18 18
36 36 36 36 35 33 32 32 32 31 31 30 30 30 30 30 29 28 28 28 28 27 26 25 24 24 23 24 23 22 21 21 21 21 21 21 21 22 22 22 22 21 20 20
36 37 37 37 36 34 32 32 32 32 31 30 30 31 31 31 30 30 30 29 29 28 28 27 26 25 24 24 24 23 23 22 21 22 22 23 23 23 23 22 22 22 21 21
35 35 36 36 36 35 34 33 32 33 32 31 30 31 32 31 31 31 31 31 31 30 30 29 29 28 27 26 26 25 24 23 23 23 23 24 24 24 23 22 22 22 22 22
34 34 35 35 35 35 34 34 33 33 33 32 31 31 32 32 31 31 31 31 32 31 30 30 29 29 28 27 26 26 26 25 24 24 24 24 24 23 23 22 22 22 23 23
Wind_Direction
228 228 229 230 232 234 236 237 239 245 250 251 254 259 267 276 298 316 325 333 339 347 353 358 4 3 1 359 359 0 4 2 3 8 6 6 5 0 358 357 355 346 341 339
228 228 228 230 233 235 236 236 236 242 249 253 255 258 264 268 279 294 308 318 328 333 334 343 351 351 351 352 353 354 355 353 352 356 359 360 358 352 344 338 339 338 330 317
228 228 229 230 232 235 236 236 235 239 247 252 255 256 263 267 268 279 289 299 308 312 316 322 331 336 336 339 345 342 343 347 347 348 349 348 345 341 338 331 330 331 323 313
227 228 229 230 231 233 233 235 235 238 243 250 255 259 262 268 273 279 284 292 295 300 305 308 314 318 322 326 330 331 335 339 342 341 340 339 339 332 332 334 332 331 325 318
228 228 229 230 230 231 232 233 235 238 242 248 255 260 261 263 268 275 279 285 287 293 302 303 301 304 311 318 318 322 328 328 334 338 340 337 335 335 335 335 336 334 331 328
227 228 229 229 229 230 231 232 235 238 242 246 253 258 259 260 266 268 273 276 279 283 292 298 296 298 302 307 308 312 321 324 321 324 328 329 328 333 332 325 324 326 324 320
226 228 228 228 229 229 230 232 235 238 242 246 251 254 258 260 264 264 267 268 269 274 282 289 294 294 294 297 298 302 307 312 314 317 321 326 324 328 331 325 322 320 316 310
227 227 228 228 229 231 231 234 237 241 244 246 248 251 255 258 261 263 264 263 266 273 279 281 287 286 281 284 289 294 299 304 308 309 314 320 316 320 330 330 328 319 312 302
226 228 228 229 229 230 231 234 237 241 244 245 247 250 252 254 257 261 260 260 265 271 273 272 277 278 276 285 289 290 290 296 299 298 307 314 322 318 319 325 324 316 312 304
225 226 227 228 228 230 232 234 236 240 244 246 248 249 252 253 254 256 256 257 264 272 270 269 278 280 283 285 288 291 288 286 286 292 298 309 314 317 318 320 321 314 310 309
225 226 226 227 228 231 231 233 236 240 244 246 249 250 251 253 253 255 256 258 265 269 271 276 279 281 282 284 289 293 295 294 291 292 295 299 302 305 306 309 314 314 309 305
225 226 227 228 228 230 231 233 237 241 244 246 249 249 249 251 253 255 257 259 264 265 268 274 278 280 281 281 284 289 292 294 292 289 290 291 295 295 295 297 302 306 306 306
225 226 226 226 228 230 232 233 235 239 242 245 247 248 248 249 252 256 257 257 263 267 266 272 275 276 276 278 281 285 287 288 293 292 289 287 291 287 285 287 292 297 301 302
224 226 228 229 231 232 234 235 236 238 241 245 247 248 247 249 253 257 258 260 265 267 264 268 272 273 274 275 279 282 281 287 290 289 287 287 288 285 283 283 285 290 295 297
223 225 226 226 227 229 232 236 238 240 242 245 246 247 248 250 253 256 257 259 263 265 266 267 269 269 271 275 277 278 281 285 285 285 284 282 282 281 280 279 280 285 290 292
225 226 226 225 225 228 232 234 237 239 241 243 245 246 247 249 252 255 255 256 259 263 266 269 270 268 269 272 276 278 283 285 283 283 284 283 279 278 279 279 280 284 285 286
226 227 226 226 226 228 231 234 236 239 241 242 244 245 247 250 252 253 253 254 256 261 264 268 268 267 268 272 274 277 281 286 285 281 282 283 280 278 279 278 280 283 285 286
227 227 228 229 229 232 233 235 237 239 240 243 245 246 247 249 250 250 252 253 254 258 263 266 270 268 269 272 273 276 279 282 282 279 279 278 278 278 279 278 279 282 283 285
227 228 229 230 231 235 235 236 238 240 242 242 244 245 245 245 248 249 251 254 257 261 264 267 270 271 269 271 274 275 276 278 276 274 274 275 275 276 278 281 282 282 284 283
230 229 231 232 233 234 236 237 239 241 241 241 244 247 248 246 249 253 256 256 258 261 264 267 270 271 271 270 272 274 272 272 271 270 270 272 271 274 278 281 280 280 281 279
231 232 233 234 236 236 237 238 239 241 242 242 244 246 248 248 249 252 255 257 259 261 262 266 270 271 269 269 271 272 271 270 269 269 269 269 270 274 279 282 280 279 278 276
234 234 234 235 237 238 238 240 240 242 242 242 243 245 247 248 249 251 253 254 257 261 263 265 267 267 266 267 268 269 271 270 270 269 269 269 271 273 276 279 280 278 278 279
236 237 237 238 239 240 240 242 243 244 242 242 242 244 247 249 250 251 252 254 255 259 262 264 264 265 266 265 266 268 270 270 270 270 270 271 272 272 274 275 276 278 280 280
239 239 240 240 241 241 241 242 244 245 245 244 244 245 247 249 252 253 254 256 257 259 260 262 264 264 266 267 267 267 267 268 269 270 270 272 272 272 273 274 275 278 280 280
240 240 241 242 242 243 242 243 244 245 245 244 245 246 247 249 251 253 254 256 259 259 261 262 262 263 266 267 267 266 267 268 270 271 271 272 272 272 272 273 274 276 279 281
240 241 241 241 241 242 241 241 242 244 244 245 246 247 248 249 251 252 253 254 256 258 259 262 263 265 265 264 265 265 266 267 269 271 272 272 271 271 271 272 274 276 278 279
Height
5895 5899 5902 5904 5906 5909 5911 5913 5915 5916 5918 5919 5921 5922 5923 5924 5924 5925 5924 5924 5923 5922 5921 5920 5919 5917 5916 5914 5913 5912 5911 5909 5908 5907 5905 5904 5903 5902 5901 5899 5899 5898 5897 5897
5892 5895 5898 5900 5902 5905 5907 5910 5912 5914 5915 5917 5919 5920 5922 5922 5923 5923 5923 5923 5922 5922 5921 5920 5918 5917 5916 5914 5913 5912 5911 5909 5908 5907 5905 5904 5903 5901 5900 5899 5898 5898 5897 5896
5887 5891 5893 5896 5899 5902 5904 5908 5910 5911 5912 5914 5916 5918 5919 5921 5921 5922 5922 5922 5921 5921 5920 5919 5918 5917 5916 5915 5913 5912 5910 5909 5907 5906 5905 5904 5903 5901 5900 5899 5898 5897 5896 5896
5881 5885 5888 5892 5895 5898 5901 5904 5906 5908 5909 5911 5914 5915 5917 5918 5919 5920 5920 5920 5920 5919 5919 5917 5917 5916 5915 5914 5913 5912 5910 5909 5907 5906 5905 5903 5902 5901 5899 5898 5898 5897 5896 5895
5877 5880 5884 5888 5892 5894 5898 5900 5903 5904 5906 5908 5910 5912 5915 5915 5916 5917 5918 5918 5918 5917 5917 5916 5915 5915 5914 5913 5912 5910 5909 5908 5906 5905 5904 5903 5901 5900 5899 5898 5897 5896 5896 5895
5872 5875 5879 5883 5887 5890 5893 5896 5898 5900 5902 5905 5907 5909 5912 5913 5914 5915 5916 5916 5916 5915 5915 5914 5914 5913 5912 5912 5911 5909 5908 5907 5905 5903 5902 5901 5900 5899 5898 5897 5896 5896 5895 5894
5867 5870 5874 5878 5882 5885 5888 5892 5894 5896 5898 5901 5904 5905 5908 5910 5911 5912 5912 5913 5913 5913 5913 5912 5912 5911 5910 5909 5909 5908 5907 5906 5904 5902 5900 5899 5898 5898 5897 5896 5896 5895 5895 5894
5862 5866 5870 5873 5877 5881 5884 5887 5890 5893 5895 5898 5900 5901 5905 5907 5907 5908 5909 5909 5910 5910 5910 5909 5909 5908 5907 5907 5906 5906 5905 5904 5902 5901 5899 5897 5897 5896 5896 5896 5895 5895 5894 5893
5857 5861 5865 5869 5872 5876 5878 5882 5886 5888 5890 5893 5895 5898 5901 5903 5904 5905 5906 5906 5907 5908 5907 5907 5907 5907 5905 5905 5904 5903 5902 5901 5900 5899 5898 5898 5897 5896 5896 5895 5894 5894 5893 5892
5851 5856 5859 5863 5867 5870 5874 5877 5880 5883 5885 5888 5891 5894 5897 5899 5900 5902 5903 5904 5904 5905 5905 5905 5905 5904 5903 5902 5901 5899 5898 5898 5898 5898 5898 5897 5897 5896 5895 5894 5893 5893 5892 5892
5845 5850 5854 5858 5861 5865 5869 5873 5875 5878 5881 5884 5887 5892 5893 5895 5897 5899 5900 5900 5901 5902 5902 5902 5902 5902 5901 5900 5899 5897 5896 5896 5896 5896 5896 5896 5895 5895 5894 5893 5892 5891 5891 5890
5839 5844 5848 5852 5857 5860 5863 5867 5870 5874 5876 5879 5882 5888 5888 5891 5893 5895 5896 5897 5898 5899 5899 5899 5899 5899 5898 5898 5897 5896 5895 5895 5895 5894 5894 5894 5894 5893 5893 5892 5891 5890 5890 5889
5833 5838 5842 5847 5852 5855 5857 5861 5865 5869 5871 5874 5877 5883 5884 5886 5888 5891 5892 5894 5895 5895 5896 5896 5896 5896 5895 5895 5894 5894 5893 5893 5893 5892 5892 5892 5891 5891 5890 5890 5889 5889 5888 5887
5828 5832 5838 5843 5846 5850 5853 5857 5860 5863 5866 5869 5872 5876 5879 5881 5884 5886 5888 5889 5890 5891 5892 5892 5893 5892 5892 5892 5891 5891 5891 5891 5890 5890 5889 5889 5888 5888 5888 5887 5887 5886 5886 5885
5822 5827 5831 5836 5841 5844 5848 5851 5855 5858 5861 5864 5868 5871 5874 5877 5879 5881 5883 5885 5886 5887 5888 5888 5889 5889 5889 5889 5889 5889 5888 5888 5887 5887 5887 5886 5885 5885 5885 5885 5884 5884 5883 5882
5817 5822 5826 5830 5835 5838 5842 5845 5849 5852 5855 5859 5862 5866 5869 5871 5873 5876 5878 5880 5881 5883 5884 5884 5885 5885 5886 5886 5886 5885 5885 5884 5884 5884 5883 5883 5882 5882 5881 5881 5881 5880 5880 5879
5812 5817 5821 5825 5829 5832 5836 5840 5843 5847 5850 5853 5856 5861 5863 5866 5868 5870 5872 5874 5876 5878 5879 5880 5880 5881 5881 5882 5882 5882 5881 5881 5880 5880 5880 5879 5878 5878 5878 5877 5877 5877 5876 5875
5807 5811 5815 5820 5824 5827 5833 5835 5838 5841 5844 5848 5851 5854 5857 5860 5863 5865 5867 5869 5871 5873 5874 5875 5876 5876 5876 5877 5877 5877 5876 5876 5876 5876 5876 5875 5875 5875 5874 5873 5873 5872 5872 5871
5801 5805 5809 5813 5817 5821 5826 5829 5832 5836 5839 5842 5845 5849 5851 5854 5857 5859 5861 5863 5866 5867 5869 5870 5870 5870 5871 5871 5871 5871 5872 5872 5872 5872 5871 5871 5871 5871 5870 5869 5868 5868 5868 5867
5795 5799 5804 5807 5810 5814 5820 5824 5826 5831 5833 5837 5840 5843 5846 5849 5852 5855 5856 5858 5860 5861 5862 5864 5864 5865 5865 5866 5866 5867 5867 5867 5867 5867 5867 5866 5866 5866 5865 5865 5864 5863 5863 5863
5788 5792 5796 5800 5804 5808 5813 5816 5820 5825 5828 5832 5834 5837 5840 5843 5846 5849 5850 5852 5854 5855 5856 5857 5858 5859 5860 5860 5861 5862 5862 5862 5862 5862 5861 5861 5861 5861 5861 5860 5860 5859 5858 5858
5782 5786 5789 5793 5797 5803 5806 5809 5814 5817 5821 5824 5828 5831 5834 5836 5839 5842 5844 5846 5847 5848 5850 5851 5852 5853 5854 5855 5856 5856 5856 5856 5856 5856 5856 5856 5856 5856 5856 5856 5855 5854 5853 5852
5775 5779 5783 5787 5792 5796 5799 5802 5806 5810 5814 5817 5821 5824 5826 5829 5832 5834 5836 5839 5840 5842 5843 5844 5845 5846 5847 5848 5849 5850 5850 5850 5850 5850 5850 5850 5850 5850 5850 5850 5849 5849 5848 5847
5767 5771 5775 5779 5784 5788 5791 5795 5798 5802 5806 5810 5813 5816 5819 5822 5824 5827 5829 5831 5833 5835 5836 5838 5839 5840 5841 5841 5842 5843 5844 5844 5844 5844 5844 5844 5844 5844 5844 5844 5844 5843 5842 5842
5760 5763 5767 5771 5776 5780 5784 5787 5791 5794 5798 5802 5805 5808 5811 5814 5816 5819 5821 5823 5825 5827 5829 5830 5831 5832 5833 5834 5835 5836 5836 5837 5837 5837 5838 5838 5838 5838 5838 5838 5838 5837 5836 5835
5752 5756 5760 5764 5768 5772 5776 5779 5783 5786 5790 5794 5797 5800 5803 5805 5808 5810 5813 5815 5817 5819 5820 5822 5823 5824 5825 5826 5827 5828 5829 5830 5830 5831 5831 5831 5831 5831 5832 5832 5831 5831 5830 5829